Location: El Para�so
(10.4896°N, 66.9245°W)
Time: 20:19:49
(UTC+00:00)

CSL-04 Rocket - Pass Details

Date: 08 August 2020
Orbit: 807 x 859 km, 98.9° (Epoch: 01 October)

Event Time Altitude Azimuth Distance (km) Brightness Sun altitude
Rises 23:13:28 0° 150° (SSE) 3,354 6.4 -6.6°
Reaches altitude 10° 23:15:59 10° 142° (SE) 2,413 5.6 -7.2°
Maximum altitude 23:20:51 37° 76° (ENE) 1,248 4.2 -8.4°
Drops below altitude 10° 23:25:40 10° 10° (N) 2,389 6.2 -9.5°
Sets 23:28:08 0° 2° (N) 3,316 7.0 -10.1°
